This demonstration page uses our WeatherBlox Daily Observations layout. Learn more.

Left ArrowRight Arrow

Hourly Observations for March 9, 2019

Temp ( °F °C ) Dew Point ( °F °C ) Humidity (%) Winds ( mph kmh ) Pressure ( in mb ) Visibility ( mi km ) Precip ( " mm )
12:15 am 00:15 Cloudy with Mist and Fog 32 0 30 -1 93 93 ESE 21 33 29.66 1004 3 5 0.00 0.03
12:24 am 00:24 Cloudy with Light Wintry Mix 32 0 30 -1 93 93 ESE 22 35 29.64 1004 3 4 0.00 0.03
12:57 am 00:57 Cloudy with Mist and Fog 32 0 31 -0.6 96 96 ESE 21 33 29.57 1001 2 3 0.00 0.03
1:35 am 01:35 Cloudy with Mist and Fog 32 0 30 -1 93 93 ESE 22 35 29.59 1002 2 2 0.00 0.00
1:57 am 01:57 Cloudy with Mist and Fog 32 0 31 -0.6 96 96 ESE 21 33 29.51 999 1 2 0.00 0.00
2:20 am 02:20 Cloudy with Light Wintry Mix 32 0 32 0 100 100 ESE 20 31 29.54 1000 1 1 0.00 0.03
2:32 am 02:32 Cloudy with Light Wintry Mix 32 0 32 0 100 100 ESE 15 24 29.54 1000 1 2 0.00 0.03
2:43 am 02:43 Cloudy with Light Wintry Mix 32 0 32 0 100 100 E 9 15 29.57 1001 1 2 0.00 0.03
2:57 am 02:57 Cloudy with Light Wintry Mix 33 0.6 32 0 96 96 ENE 9 15 29.53 1000 1 2 0.00 0.03
3:40 am 03:40 Cloudy with Light Snow 32 0 32 0 100 100 E 10 17 29.53 1000 1 2 0.00 0.03
3:57 am 03:57 Cloudy with Light Snow 32 0 32 0 100 100 E 10 17 29.47 998 1 2 0.00 0.03
5:12 am 05:12 Cloudy with Light Snow 32 0 32 0 100 100 ENE 10 17 29.48 998 1 2 0.00 0.03
5:57 am 05:57 Cloudy with Light Wintry Mix 32 0 32 0 100 100 ENE 10 17 29.42 996 2 2 0.01 0.25
6:13 am 06:13 Cloudy with Light Rain 34 1 32 0 93 93 ENE 8 13 29.45 997 2 3 0.00 0.03
6:25 am 06:25 Cloudy with Mist and Fog 34 1 32 0 93 93 NE 7 11 29.45 997 2 2 0.00 0.03
6:57 am 06:57 Cloudy with Mist and Fog 32 0 32 0 100 100 N 8 13 29.43 997 1 2 0.00 0.03
7:05 am 07:05 Cloudy with Fog 34 1 32 0 93 93 N 7 11 29.47 998 1 1 0.00 0.00
7:46 am 07:46 Cloudy with Mist and Fog 34 1 32 0 93 93 NNW 13 20 29.48 998 1 1 0.00 0.00
7:57 am 07:57 Cloudy with Mist and Fog 33 0.6 32 0 96 96 NNW 12 19 29.44 997 1 2 0.00 0.00
8:09 am 08:09 Cloudy with Mist and Fog 34 1 32 0 93 93 NNW 14 22 29.49 999 2 2 0.00 0.00
8:40 am 08:40 Cloudy with Mist and Fog 34 1 32 0 93 93 NNW 17 28 29.52 1000 3 4 0.00 0.00
8:57 am 08:57 Cloudy with Mist and Fog 33 0.6 32 0 96 96 NNW 18 30 29.48 998 3 4 0.00 0.00
9:12 am 09:12 Cloudy with Mist and Fog 34 1 34 1 100 100 NNW 21 33 29.53 1000 3 5 0.00 0.00
9:20 am 09:20 Cloudy with Mist and Fog 34 1 34 1 100 100 NNW 17 28 29.54 1000 4 6 0.00 0.00
10:42 am 10:42 Cloudy 36 2 36 2 100 100 NW 18 30 29.55 1001 10 16 0.00 0.00
10:57 am 10:57 Cloudy 36 2.2 34 1.1 93 93 NW 24 39 29.53 1000 10 16 0.00 0.00
11:57 am 11:57 Cloudy 37 2.8 30 -1.1 76 76 NW 25 41 29.57 1001 10 16 0.00 0.00
12:57 pm 12:57 Cloudy 33 0.6 26 -3.3 75 75 NNW 29 46 29.62 1003 10 16 0.00 0.00
1:33 pm 13:33 Partly Cloudy 34 1 25 -4 70 70 NW 26 43 29.69 1005 10 16 0.00 0.00
1:44 pm 13:44 Mostly Cloudy 34 1 25 -4 70 70 NW 26 43 29.70 1006 10 16 0.00 0.00
1:57 pm 13:57 Cloudy 33 0.6 25 -3.9 72 72 NW 35 56 29.65 1004 10 16 0.00 0.00
2:28 pm 14:28 Partly Cloudy 32 0 23 -5 69 69 NW 30 48 29.71 1006 10 16 0.00 0.00
2:51 pm 14:51 Mostly Cloudy 32 0 23 -5 69 69 NW 30 48 29.73 1007 10 16 0.00 0.00
2:57 pm 14:57 Mostly Cloudy 32 0 24 -4.4 73 73 NW 32 52 29.68 1005 10 16 0.00 0.00
3:57 pm 15:57 Cloudy 31 -0.6 24 -4.4 76 76 NW 29 46 29.73 1007 10 16 0.00 0.00
4:57 pm 16:57 Cloudy 31 -0.6 24 -4.4 76 76 NNW 32 52 29.78 1008 10 16 0.00 0.00
5:38 pm 17:38 Cloudy 32 0 25 -4 75 75 NNW 26 43 29.87 1012 10 16 0.00 0.00
5:57 pm 17:57 Cloudy 32 0 24 -4.4 73 73 NNW 21 33 29.84 1011 10 16 0.00 0.00
6:57 pm 18:57 Cloudy 32 0 25 -3.9 75 75 NNW 21 33 29.91 1013 10 16 0.00 0.00
7:46 pm 19:46 Mostly Cloudy 30 -1 25 -4 80 80 NNW 20 31 29.99 1016 10 16 0.00 0.00
7:57 pm 19:57 Partly Cloudy 30 -1.1 24 -4.4 79 79 NNW 20 31 29.95 1014 10 16 0.00 0.00
8:57 pm 20:57 Clear 29 -1.7 23 -5 78 78 NNW 17 28 29.98 1015 10 16 0.00 0.00
9:57 pm 21:57 Clear 27 -2.8 22 -5.6 81 81 NW 13 20 29.99 1016 10 16 0.00 0.00
10:57 pm 22:57 Clear 25 -3.9 21 -6.1 85 85 WNW 12 19 30.02 1017 10 16 0.00 0.00
11:57 pm 23:57 Clear 25 -3.9 20 -6.7 81 81 NW 10 17 30.03 1017 10 16 0.00 0.00

Powered by AerisWeather